When you browse on this site, cookies collect data to enhance your experience and personalize the content and advertising you see.
Visit our Privacy Policy to learn more. By continuing to use the site, you agree to this use of cookies and data.
  • In Netherlands
  • List of Countries
  • For 7 days
  • Water Temperature
  • Satellite Maps
  • Weather Map
  • Weather Widgets
  • user-avatar
    Login

    Hourly Weather Berlin

    Today, 10 December, Monday

    Time Temperature Precipitation Wind Pressure Humidity
    00:00 +4°C° 0.1 mm 8 mps 747 mmHg 73%
    01:00 +3°C° 0 mm 6 mps 748 mmHg 76%
    02:00 +3°C° 0 mm 6 mps 749 mmHg 75%
    03:00 +3°C° 0 mm 6 mps 749 mmHg 75%
    04:00 +3°C° 0 mm 6 mps 750 mmHg 75%
    05:00 +3°C° 0 mm 6 mps 750 mmHg 75%
    06:00 +2°C° 0 mm 6 mps 751 mmHg 75%
    07:00 +2°C° 0 mm 5 mps 752 mmHg 80%
    08:00 +2°C° 0 mm 6 mps 752 mmHg 77%
    09:00 +2°C° 0 mm 7 mps 752 mmHg 75%
    10:00 +3°C° 0 mm 7 mps 753 mmHg 73%
    11:00 +3°C° 0.1 mm 7 mps 753 mmHg 70%
    12:00 +3°C° 0.1 mm 7 mps 753 mmHg 68%
    13:00 +4°C° 0.1 mm 7 mps 753 mmHg 65%
    14:00 +3°C° 0.1 mm 7 mps 753 mmHg 66%
    15:00 +3°C° 0.1 mm 6 mps 753 mmHg 67%
    16:00 +3°C° 0.1 mm 5 mps 753 mmHg 68%
    17:00 +2°C° 0 mm 6 mps 753 mmHg 69%
    18:00 +2°C° 0 mm 6 mps 753 mmHg 71%
    19:00 +2°C° 0 mm 6 mps 753 mmHg 73%
    20:00 +2°C° 0 mm 6 mps 753 mmHg 74%
    21:00 +2°C° 0 mm 6 mps 753 mmHg 75%
    22:00 +2°C° 0 mm 6 mps 753 mmHg 77%
    23:00 +2°C° 0 mm 6 mps 753 mmHg 77%

    Tomorrow, 11 December, Tuesday

    Time Temperature Precipitation Wind Pressure Humidity
    00:00 +2°C° 0 mm 5 mps 753 mmHg 77%
    01:00 +2°C° 0 mm 5 mps 753 mmHg 77%
    02:00 +2°C° 0.1 mm 6 mps 753 mmHg 76%
    03:00 +2°C° 0.1 mm 6 mps 753 mmHg 75%
    04:00 +2°C° 0.1 mm 6 mps 753 mmHg 74%
    05:00 +2°C° 0.4 mm 6 mps 753 mmHg 75%
    06:00 +2°C° 0.4 mm 6 mps 753 mmHg 75%
    07:00 +2°C° 0.4 mm 6 mps 753 mmHg 76%
    08:00 +2°C° 0.4 mm 6 mps 754 mmHg 77%
    09:00 +2°C° 0.4 mm 6 mps 754 mmHg 77%
    10:00 +2°C° 0.4 mm 6 mps 755 mmHg 78%
    11:00 +2°C° 0.2 mm 6 mps 755 mmHg 75%
    12:00 +2°C° 0.2 mm 6 mps 756 mmHg 72%
    13:00 +2°C° 0.2 mm 5 mps 756 mmHg 69%
    14:00 +2°C° 0 mm 5 mps 756 mmHg 71%
    15:00 +1°C° 0 mm 4 mps 757 mmHg 74%
    16:00 +2°C° 0 mm 3 mps 757 mmHg 77%
    17:00 +1°C° 0 mm 3 mps 758 mmHg 80%
    18:00 +1°C° 0 mm 3 mps 758 mmHg 82%
    19:00 +1°C° 0 mm 3 mps 759 mmHg 85%
    20:00 0°C° 0 mm 3 mps 759 mmHg 86%
    21:00 0°C° 0 mm 3 mps 759 mmHg 87%
    22:00 0°C° 0 mm 3 mps 760 mmHg 88%
    23:00 0°C° 0 mm 3 mps 760 mmHg 89%

    Day after tomorrow, 12 December, Wednesday

    Time Temperature Precipitation Wind Pressure Humidity
    00:00 0°C° 0 mm 3 mps 760 mmHg 90%
    01:00 0°C° 0 mm 3 mps 761 mmHg 91%
    02:00 0°C° 0 mm 3 mps 761 mmHg 92%
    03:00 0°C° 0 mm 3 mps 761 mmHg 94%
    04:00 +1°C° 0 mm 2 mps 761 mmHg 95%
    05:00 +1°C° 0.3 mm 2 mps 761 mmHg 94%
    06:00 +1°C° 0.3 mm 3 mps 762 mmHg 94%
    07:00 +1°C° 0.3 mm 3 mps 762 mmHg 93%
    08:00 +2°C° 0.1 mm 2 mps 762 mmHg 92%
    09:00 +2°C° 0.1 mm 2 mps 762 mmHg 91%
    10:00 +2°C° 0.1 mm 2 mps 762 mmHg 89%
    11:00 +3°C° 0 mm 2 mps 762 mmHg 86%
    12:00 +3°C° 0 mm 2 mps 762 mmHg 82%
    13:00 +5°C° 0 mm 1 mps 762 mmHg 78%
    14:00 +4°C° 0 mm 1 mps 762 mmHg 81%
    15:00 +3°C° 0 mm 1 mps 762 mmHg 84%
    16:00 +2°C° 0 mm 1 mps 762 mmHg 87%
    17:00 +2°C° 0 mm 1 mps 762 mmHg 88%
    18:00 +2°C° 0 mm 1 mps 762 mmHg 88%
    19:00 +2°C° 0 mm 1 mps 762 mmHg 89%
    20:00 0°C° 0 mm 0 mps 763 mmHg 89%
    21:00 0°C° 0 mm 0 mps 763 mmHg 90%
    22:00 0°C° 0 mm 0 mps 763 mmHg 90%
    23:00 0°C° 0 mm 0 mps 763 mmHg 90%

    13 December, Thursday

    Time Temperature Precipitation Wind Pressure Humidity
    00:00 0°C° 0 mm 0 mps 763 mmHg 90%
    01:00 0°C° 0 mm 0 mps 763 mmHg 90%
    02:00 0°C° 0 mm 0 mps 762 mmHg 90%
    03:00 0°C° 0 mm 0 mps 762 mmHg 91%
    04:00 0°C° 0 mm 0 mps 762 mmHg 91%
    05:00 0°C° 0 mm 0 mps 762 mmHg 91%
    06:00 +1°C° 0 mm 1 mps 762 mmHg 92%
    07:00 +1°C° 0 mm 1 mps 762 mmHg 93%
    08:00 +1°C° 0 mm 1 mps 762 mmHg 91%
    09:00 +2°C° 0 mm 1 mps 762 mmHg 90%
    10:00 +2°C° 0 mm 1 mps 762 mmHg 89%
    11:00 +2°C° 0 mm 1 mps 761 mmHg 86%
    12:00 +2°C° 0 mm 2 mps 761 mmHg 83%
    13:00 +2°C° 0 mm 2 mps 761 mmHg 80%
    14:00 +2°C° 0 mm 2 mps 761 mmHg 82%
    15:00 +1°C° 0 mm 2 mps 761 mmHg 85%
    16:00 -1°C° 0 mm 2 mps 761 mmHg 87%
    17:00 +1°C° 0 mm 1 mps 761 mmHg 88%
    18:00 +1°C° 0 mm 1 mps 761 mmHg 89%
    19:00 +1°C° 0 mm 1 mps 761 mmHg 90%
    20:00 +1°C° 0 mm 1 mps 761 mmHg 90%
    21:00 +1°C° 0 mm 1 mps 761 mmHg 90%
    22:00 +1°C° 0 mm 1 mps 762 mmHg 89%
    23:00 0°C° 0 mm 1 mps 762 mmHg 90%

    14 December, Friday

    Time Temperature Precipitation Wind Pressure Humidity
    00:00 0°C° 0 mm 1 mps 762 mmHg 91%
    01:00 0°C° 0 mm 1 mps 762 mmHg 92%
    02:00 0°C° 0 mm 1 mps 762 mmHg 92%
    03:00 0°C° 0 mm 1 mps 762 mmHg 93%
    04:00 0°C° 0 mm 1 mps 762 mmHg 93%
    05:00 -1°C° 0 mm 1 mps 763 mmHg 93%
    06:00 -1°C° 0 mm 1 mps 763 mmHg 93%
    07:00 -3°C° 0 mm 2 mps 763 mmHg 93%
    08:00 -2°C° 0 mm 2 mps 764 mmHg 90%
    09:00 -2°C° 0 mm 2 mps 764 mmHg 87%
    10:00 -2°C° 0 mm 2 mps 765 mmHg 85%
    11:00 -1°C° 0 mm 2 mps 765 mmHg 81%
    12:00 +1°C° 0 mm 2 mps 765 mmHg 78%
    13:00 +1°C° 0 mm 2 mps 765 mmHg 75%
    14:00 -1°C° 0 mm 2 mps 765 mmHg 79%
    15:00 -1°C° 0 mm 2 mps 766 mmHg 83%
    16:00 -2°C° 0 mm 2 mps 766 mmHg 86%
    17:00 -2°C° 0 mm 2 mps 766 mmHg 88%
    18:00 -2°C° 0 mm 2 mps 767 mmHg 90%
    19:00 -2°C° 0 mm 2 mps 767 mmHg 91%
    20:00 -3°C° 0 mm 2 mps 767 mmHg 92%
    21:00 -3°C° 0 mm 2 mps 767 mmHg 92%
    22:00 -3°C° 0 mm 2 mps 768 mmHg 93%
    23:00 -3°C° 0 mm 2 mps 768 mmHg 93%

    15 December, Saturday

    Time Temperature Precipitation Wind Pressure Humidity
    00:00 -3°C° 0 mm 2 mps 768 mmHg 93%
    01:00 -3°C° 0 mm 2 mps 768 mmHg 93%
    02:00 -3°C° 0 mm 2 mps 768 mmHg 93%
    03:00 -3°C° 0 mm 2 mps 769 mmHg 93%
    04:00 -3°C° 0 mm 2 mps 769 mmHg 93%
    05:00 -3°C° 0 mm 2 mps 769 mmHg 93%
    06:00 -4°C° 0 mm 2 mps 769 mmHg 92%
    07:00 -4°C° 0 mm 2 mps 769 mmHg 92%
    08:00 -3°C° 0 mm 2 mps 770 mmHg 89%
    09:00 -4°C° 0 mm 3 mps 770 mmHg 86%
    10:00 -2°C° 0 mm 3 mps 770 mmHg 83%
    11:00 -2°C° 0 mm 3 mps 770 mmHg 80%
    12:00 -1°C° 0 mm 3 mps 770 mmHg 77%
    13:00 0°C° 0 mm 3 mps 769 mmHg 73%
    14:00 -1°C° 0 mm 3 mps 769 mmHg 77%
    15:00 -2°C° 0 mm 3 mps 769 mmHg 81%
    16:00 -2°C° 0 mm 3 mps 769 mmHg 84%
    17:00 -4°C° 0 mm 3 mps 769 mmHg 85%
    18:00 -4°C° 0 mm 3 mps 769 mmHg 85%
    19:00 -4°C° 0 mm 4 mps 769 mmHg 86%
    20:00 -4°C° 0 mm 4 mps 769 mmHg 85%
    21:00 -4°C° 0 mm 4 mps 769 mmHg 85%
    22:00 -4°C° 0 mm 4 mps 768 mmHg 85%
    23:00 -4°C° 0 mm 4 mps 768 mmHg 84%
    Show more